Retour au catalogue

ATLAS 5 CENTAUR DEB

ActifHEO
NORAD 45475·DEBRIS·🇺🇸 United States

Lancé Oct 17, 2018 depuis Cape Canaveral Space Force Station

Loading…

Prochains Passages (prochaines 24 heures)

TLE

FraisSource: Space-Track

Époque: Sep 14, 2026, 11:31 UTC

1 45475U 18079BX  26257.47997069 -.00000174  00000-0  00000-0 0  9996
2 45475  13.4480  18.1755 4741974 351.8671   2.4890  1.84723190 46829

Suivez ATLAS 5 CENTAUR DEB en temps réel avec AllMySat

Download on the App Store